Weather History for Szeged, Hungary

Change the Weather History Date:

Tuesday, May 7, 2013

  Actual Average (LRAR) Record (LRAR)
Temperature  
Mean Temperature 66 °F -  
Max Temperature 74 °F 73 °F 87 °F (2003)
Min Temperature 59 °F 52 °F 37 °F (2011)
Cooling Degree Days 2    
Growing Degree Days 16 (Base 50)    
Moisture  
Dew Point 61 °F    
Average Humidity 83    
Maximum Humidity 100    
Minimum Humidity 61    
Precipitation  
Precipitation 0.20 in 0.07 in - ()
Sea Level Pressure  
Sea Level Pressure 30.04 in    
Wind  
Wind Speed 9 mph ()    
Max Wind Speed 25 mph    
Max Gust Speed 40 mph    
Visibility 6.7 miles    
Events Rain    
Averages and records for this station are not official NWS values.
T = Trace of Precipitation, MM = Missing Value Source: Averaged Metar Reports

Daily Weather History Graph

Daily Weather History Graph

Search for Another Location

Airport:

Trip Planner

Search our weather history database for the weather conditions in past years. The results will help you decide how hot, cold, wet, or windy it might be!

Date:

Astronomy

May. 07, 2013 Rise Set
Actual Time 5:17 AM CEST 7:56 PM CEST
Civil Twilight 4:43 AM CEST 8:30 PM CEST
Nautical Twilight 4:00 AM CEST 9:13 PM CEST
Astronomical Twilight 3:10 AM CEST 10:03 PM CEST
Moon 3:50 AM CEST (5/7) 5:30 PM CEST (5/7)
Length of Visible Light 15h 47m
Length of Day
14h 38m
Waning Crescent, 7% of the Moon is Illuminated
May 7
Waning Crescent
May 10
New
May 18
First Quarter
May 25
Full
May 31
Last Quarter

Hourly Weather History & Observations

Time (CEST) Temp. Dew Point Humidity Pressure Visibility Wind Dir Wind Speed Gust Speed Precip Events Conditions
12:45 AM 60.8 °F 59.0 °F 94% 30.06 in 6.2 mi NE 12.7 mph - N/A Rain Light Rain
1:45 AM 60.8 °F 59.0 °F 94% 30.06 in - NE 6.9 mph - N/A   Clear
2:00 AM 60 °F 59 °F 94% 30.05 in 16 mi NE 6.7 mph - - Rain Light Rain
2:45 AM 60.8 °F 59.0 °F 94% 30.06 in 6.2 mi NNE 3.5 mph - N/A   Mostly Cloudy
3:45 AM 60.8 °F 59.0 °F 94% 30.04 in 6.2 mi East 3.5 mph - N/A   Mostly Cloudy
4:41 AM 60.8 °F 59.0 °F 94% 30.04 in 6.2 mi ESE 11.5 mph - N/A Rain Rain Showers
4:45 AM 60.8 °F 59.0 °F 94% 30.04 in 6.2 mi ESE 11.5 mph - N/A Rain Rain Showers
5:45 AM 59.0 °F 59.0 °F 100% 30.04 in 6.2 mi East 10.4 mph - N/A Rain Light Rain Showers
6:15 AM 60.8 °F 59.0 °F 94% 30.04 in 6.2 mi East 9.2 mph - N/A   Scattered Clouds
6:45 AM 60.8 °F 59.0 °F 94% 30.06 in 6.2 mi East 9.2 mph - N/A   Scattered Clouds
7:15 AM 60.8 °F 60.8 °F 100% 30.06 in 6.2 mi ESE 5.8 mph - N/A   Scattered Clouds
7:45 AM 62.6 °F 60.8 °F 94% 30.06 in 6.2 mi SSE 5.8 mph - N/A Rain Light Rain Showers
8:00 AM 62 °F 61 °F 94% 30.06 in 9 mi SSE 4.5 mph - - Rain Light Rain Showers
8:15 AM 62.6 °F 60.8 °F 94% 30.06 in 6.2 mi SE 3.5 mph - N/A   Scattered Clouds
8:45 AM 62.6 °F 60.8 °F 94% 30.09 in 5.0 mi SE 10.4 mph - N/A Rain Light Rain Showers
9:15 AM 62.6 °F 60.8 °F 94% 30.09 in 4.3 mi SE 10.4 mph - N/A Rain Rain Showers
9:45 AM 62.6 °F 60.8 °F 94% 30.06 in 6.2 mi SE 11.5 mph - N/A Rain Light Rain Showers
10:15 AM 62.6 °F 60.8 °F 94% 30.06 in 6.2 mi ESE 12.7 mph - N/A Rain Light Rain Showers
10:45 AM 64.4 °F 62.6 °F 94% 30.06 in 6.2 mi SE 10.4 mph - N/A   Mostly Cloudy
11:15 AM 68.0 °F 62.6 °F 83% 30.06 in 6.2 mi SE 16.1 mph - N/A   Scattered Clouds
11:23 AM 68.0 °F 62.6 °F 83% 30.09 in - SE 16.1 mph 27.6 mph N/A   Unknown
11:24 AM 68.0 °F 62.6 °F 83% 30.06 in 6.2 mi SE 16.1 mph - N/A   Scattered Clouds
11:37 AM 68.0 °F 59.0 °F 73% 30.06 in 6.2 mi SE 25.3 mph 40.3 mph N/A Rain Light Rain Showers
11:45 AM 66.2 °F 59.0 °F 78% 30.06 in 6.2 mi SE 24.2 mph - N/A Rain Light Rain Showers
12:15 PM 66.2 °F 60.8 °F 83% 30.06 in 6.2 mi SE 21.9 mph - N/A Rain Light Rain Showers
12:45 PM 68.0 °F 60.8 °F 78% 30.06 in 6.2 mi SSE 16.1 mph - N/A   Mostly Cloudy
1:15 PM 69.8 °F 62.6 °F 78% 30.06 in 6.2 mi SE 17.3 mph - N/A   Mostly Cloudy
1:45 PM 68.0 °F 60.8 °F 78% 30.04 in 6.2 mi SSE 15.0 mph - N/A   Mostly Cloudy
2:00 PM 69 °F 61 °F 68% 30.04 in 22 mi SSE 13.4 mph - -   Scattered Clouds
2:15 PM 71.6 °F 60.8 °F 69% 30.04 in 6.2 mi SSE 17.3 mph - N/A   Scattered Clouds
2:45 PM 73.4 °F 59.0 °F 61% 30.04 in 6.2 mi SSE 16.1 mph - N/A   Scattered Clouds
3:15 PM 71.6 °F 59.0 °F 64% 30.04 in 6.2 mi SSE 13.8 mph - N/A   Scattered Clouds
3:45 PM 73.4 °F 59.0 °F 61% 30.01 in 6.2 mi SE 15.0 mph - N/A   Scattered Clouds
4:15 PM 71.6 °F 59.0 °F 64% 30.01 in 6.2 mi SSE 9.2 mph - N/A   Mostly Cloudy
4:45 PM 73.4 °F 59.0 °F 61% 30.01 in - SSE 12.7 mph - N/A   Clear
5:15 PM 73.4 °F 59.0 °F 61% 30.01 in - SSE 8.1 mph - N/A   Clear
5:45 PM 73.4 °F 59.0 °F 61% 29.98 in 6.2 mi SSE 6.9 mph - N/A   Scattered Clouds
6:15 PM 73.4 °F 59.0 °F 61% 29.98 in - SSE 6.9 mph - N/A   Clear
6:45 PM 71.6 °F 59.0 °F 64% 29.98 in - SSE 4.6 mph - N/A   Clear
7:15 PM 69.8 °F 60.8 °F 73% 29.98 in - Calm Calm - N/A   Clear
7:45 PM 69.8 °F 62.6 °F 78% 30.01 in - Calm Calm - N/A   Clear
8:00 PM 69 °F 63 °F 76% 29.99 in 16 mi Calm Calm - -   Partly Cloudy
8:15 PM 68.0 °F 62.6 °F 83% 30.01 in - NNE 2.3 mph - N/A   Clear
8:45 PM 68.0 °F 64.4 °F 88% 30.01 in - Calm Calm - N/A   Clear
9:15 PM 68.0 °F 64.4 °F 88% 30.04 in - West 4.6 mph - N/A   Clear
9:22 PM 66.2 °F 64.4 °F 94% 30.04 in 6.2 mi WNW 2.3 mph - N/A Rain Light Rain
9:45 PM 66.2 °F 64.4 °F 94% 30.04 in 6.2 mi WNW 4.6 mph - N/A   Mostly Cloudy
10:45 PM 66.2 °F 64.4 °F 94% 30.04 in 6.2 mi NW 1.2 mph - N/A   Mostly Cloudy
11:45 PM 64.4 °F 59.0 °F 83% 30.04 in 6.2 mi SSW 9.2 mph - N/A Rain Light Rain